Voltar ao catálogo

STARLINK-31689

AtivoComunicaçõesVLEO
NORAD 59567·PAYLOAD·🇺🇸 United States

Lançado Apr 23, 2024 de Cape Canaveral Space Force Station

Loading…

Próximas Passagens (próximas 24 horas)

TLE

AtualizadoSource: CelesTrak SupGP

Época: Sep 15, 2026, 03:16 UTC

1 59567C 24076D   26258.13659722  .00020593  00000+0  74631-3 0  2589
2 59567  43.0045  15.7850 0001728 260.6717 130.3847 15.27548895    14

Acompanhe STARLINK-31689 em tempo real com AllMySat

Download on the App Store